When you browse on this site, cookies collect data to enhance your experience and personalize the content and advertising you see.
Visit our Privacy Policy to learn more. By continuing to use the site, you agree to this use of cookies and data.

Meteo pe oră la Sacapa

Astăzi, 5 Iulie, Duminică

Timp Temperatura Precipitaţii Vânt Presiune Umiditate
00:00 +20°C° 0 mm 0 m/s 697 mmHg 97%
01:00 +20°C° 0 mm 0 m/s 696 mmHg 97%
02:00 +19°C° 0 mm 0 m/s 696 mmHg 97%
03:00 +19°C° 0 mm 0 m/s 695 mmHg 97%
04:00 +19°C° 0 mm 0 m/s 696 mmHg 97%
05:00 +19°C° 0 mm 0 m/s 696 mmHg 97%
06:00 +20°C° 0 mm 0 m/s 696 mmHg 97%
07:00 +21°C° 0 mm 0 m/s 697 mmHg 93%
08:00 +23°C° 0 mm 0 m/s 697 mmHg 88%
09:00 +24°C° 0 mm 0 m/s 697 mmHg 84%
10:00 +27°C° 0 mm 1 m/s 697 mmHg 79%
11:00 +28°C° 0 mm 1 m/s 697 mmHg 75%
12:00 +29°C° 0 mm 1 m/s 697 mmHg 70%
13:00 +29°C° 0 mm 1 m/s 696 mmHg 68%
14:00 +30°C° 0 mm 1 m/s 696 mmHg 65%
15:00 +30°C° 0 mm 2 m/s 696 mmHg 63%
16:00 +29°C° 0.5 mm 1 m/s 695 mmHg 72%
17:00 +27°C° 0.5 mm 1 m/s 695 mmHg 81%
18:00 +26°C° 0.5 mm 1 m/s 695 mmHg 90%
19:00 +25°C° 0.7 mm 1 m/s 696 mmHg 92%
20:00 +23°C° 0.7 mm 1 m/s 696 mmHg 95%
21:00 +22°C° 0.7 mm 1 m/s 697 mmHg 98%
22:00 +22°C° 0.5 mm 1 m/s 697 mmHg 98%
23:00 +20°C° 0.5 mm 0 m/s 697 mmHg 98%

Mâine, 6 Iulie, Luni

Timp Temperatura Precipitaţii Vânt Presiune Umiditate
00:00 +20°C° 0.5 mm 0 m/s 697 mmHg 98%
01:00 +20°C° 0 mm 0 m/s 696 mmHg 98%
02:00 +20°C° 0 mm 0 m/s 696 mmHg 98%
03:00 +19°C° 0 mm 0 m/s 696 mmHg 98%
04:00 +20°C° 0 mm 0 m/s 696 mmHg 98%
05:00 +20°C° 0 mm 0 m/s 696 mmHg 97%
06:00 +20°C° 0 mm 0 m/s 696 mmHg 97%
07:00 +21°C° 0 mm 0 m/s 697 mmHg 92%
08:00 +22°C° 0 mm 0 m/s 697 mmHg 87%
09:00 +24°C° 0 mm 0 m/s 698 mmHg 83%
10:00 +26°C° 0 mm 0 m/s 698 mmHg 74%
11:00 +29°C° 0 mm 1 m/s 698 mmHg 66%
12:00 +31°C° 0 mm 1 m/s 698 mmHg 57%
13:00 +31°C° 0 mm 1 m/s 697 mmHg 56%
14:00 +31°C° 0 mm 1 m/s 697 mmHg 54%
15:00 +31°C° 0 mm 1 m/s 696 mmHg 52%
16:00 +30°C° 0 mm 1 m/s 696 mmHg 61%
17:00 +28°C° 0 mm 1 m/s 696 mmHg 69%
18:00 +26°C° 0 mm 1 m/s 696 mmHg 77%
19:00 +25°C° 0.1 mm 1 m/s 696 mmHg 82%
20:00 +24°C° 0.1 mm 1 m/s 697 mmHg 88%
21:00 +22°C° 0.1 mm 1 m/s 697 mmHg 93%
22:00 +22°C° 0 mm 1 m/s 697 mmHg 95%
23:00 +20°C° 0 mm 0 m/s 697 mmHg 96%

Poimâine, 7 Iulie, Marţi

Timp Temperatura Precipitaţii Vânt Presiune Umiditate
00:00 +20°C° 0 mm 0 m/s 697 mmHg 98%
01:00 +19°C° 0 mm 0 m/s 697 mmHg 98%
02:00 +19°C° 0 mm 0 m/s 697 mmHg 97%
03:00 +19°C° 0 mm 0 m/s 696 mmHg 97%
04:00 +19°C° 0 mm 0 m/s 696 mmHg 97%
05:00 +19°C° 0 mm 0 m/s 697 mmHg 96%
06:00 +19°C° 0 mm 0 m/s 697 mmHg 96%
07:00 +21°C° 0 mm 0 m/s 697 mmHg 91%
08:00 +22°C° 0 mm 0 m/s 698 mmHg 87%
09:00 +24°C° 0 mm 0 m/s 698 mmHg 82%
10:00 +25°C° 0 mm 0 m/s 698 mmHg 76%
11:00 +29°C° 0 mm 1 m/s 698 mmHg 70%
12:00 +30°C° 0 mm 1 m/s 698 mmHg 65%
13:00 +30°C° 0.1 mm 1 m/s 698 mmHg 63%
14:00 +30°C° 0.1 mm 2 m/s 697 mmHg 62%
15:00 +30°C° 0.1 mm 2 m/s 696 mmHg 61%
16:00 +29°C° 0.3 mm 2 m/s 696 mmHg 70%
17:00 +27°C° 0.3 mm 2 m/s 696 mmHg 78%
18:00 +25°C° 0.3 mm 1 m/s 696 mmHg 87%
19:00 +24°C° 0 mm 1 m/s 696 mmHg 91%
20:00 +23°C° 0 mm 1 m/s 697 mmHg 94%
21:00 +22°C° 0 mm 1 m/s 697 mmHg 98%
22:00 +22°C° 0.1 mm 1 m/s 697 mmHg 98%
23:00 +20°C° 0.1 mm 0 m/s 697 mmHg 98%

8 Iulie, Miercuri

Timp Temperatura Precipitaţii Vânt Presiune Umiditate
00:00 +20°C° 0.1 mm 0 m/s 697 mmHg 98%
01:00 +20°C° 0.1 mm 0 m/s 697 mmHg 97%
02:00 +20°C° 0.1 mm 0 m/s 696 mmHg 96%
03:00 +20°C° 0.1 mm 0 m/s 696 mmHg 96%
04:00 +19°C° 0 mm 0 m/s 696 mmHg 96%
05:00 +19°C° 0 mm 0 m/s 696 mmHg 97%
06:00 +19°C° 0 mm 0 m/s 696 mmHg 97%
07:00 +21°C° 0 mm 0 m/s 697 mmHg 91%
08:00 +23°C° 0 mm 0 m/s 697 mmHg 85%
09:00 +27°C° 0 mm 1 m/s 698 mmHg 78%
10:00 +28°C° 0 mm 1 m/s 698 mmHg 73%
11:00 +29°C° 0 mm 1 m/s 698 mmHg 68%
12:00 +30°C° 0 mm 1 m/s 698 mmHg 63%
13:00 +30°C° 0.1 mm 2 m/s 697 mmHg 63%
14:00 +30°C° 0.1 mm 2 m/s 696 mmHg 64%
15:00 +30°C° 0.1 mm 2 m/s 696 mmHg 64%
16:00 +29°C° 0.2 mm 2 m/s 696 mmHg 71%
17:00 +27°C° 0.2 mm 2 m/s 696 mmHg 79%
18:00 +26°C° 0.2 mm 1 m/s 695 mmHg 87%
19:00 +25°C° 0.1 mm 1 m/s 696 mmHg 90%
20:00 +23°C° 0.1 mm 1 m/s 696 mmHg 94%
21:00 +22°C° 0.1 mm 1 m/s 697 mmHg 98%
22:00 +22°C° 0 mm 1 m/s 697 mmHg 98%
23:00 +22°C° 0 mm 1 m/s 696 mmHg 98%

9 Iulie, Joi

Timp Temperatura Precipitaţii Vânt Presiune Umiditate
00:00 +20°C° 0 mm 0 m/s 696 mmHg 98%
01:00 +20°C° 0 mm 0 m/s 696 mmHg 97%
02:00 +19°C° 0 mm 0 m/s 696 mmHg 97%
03:00 +19°C° 0 mm 0 m/s 695 mmHg 96%
04:00 +19°C° 0 mm 0 m/s 696 mmHg 96%
05:00 +19°C° 0 mm 0 m/s 696 mmHg 96%
06:00 +19°C° 0 mm 0 m/s 696 mmHg 96%
07:00 +21°C° 0 mm 0 m/s 696 mmHg 90%
08:00 +25°C° 0 mm 1 m/s 697 mmHg 83%
09:00 +27°C° 0 mm 1 m/s 698 mmHg 77%
10:00 +28°C° 0.4 mm 1 m/s 697 mmHg 75%
11:00 +29°C° 0.4 mm 1 m/s 697 mmHg 72%
12:00 +29°C° 0.4 mm 2 m/s 697 mmHg 70%
13:00 +29°C° 0.6 mm 2 m/s 696 mmHg 71%
14:00 +29°C° 0.6 mm 2 m/s 696 mmHg 72%
15:00 +29°C° 0.6 mm 2 m/s 695 mmHg 72%
16:00 +28°C° 0.1 mm 2 m/s 695 mmHg 77%
17:00 +27°C° 0.1 mm 2 m/s 695 mmHg 82%
18:00 +25°C° 0.1 mm 1 m/s 696 mmHg 87%
19:00 +24°C° 0.1 mm 1 m/s 696 mmHg 90%
20:00 +23°C° 0.1 mm 1 m/s 696 mmHg 94%
21:00 +22°C° 0.1 mm 1 m/s 697 mmHg 97%
22:00 +22°C° 0.1 mm 1 m/s 697 mmHg 97%
23:00 +22°C° 0.1 mm 1 m/s 697 mmHg 97%

10 Iulie, Vineri

Timp Temperatura Precipitaţii Vânt Presiune Umiditate
00:00 +21°C° 0.1 mm 1 m/s 697 mmHg 97%
01:00 +21°C° 0 mm 1 m/s 696 mmHg 97%
02:00 +21°C° 0 mm 1 m/s 696 mmHg 97%
03:00 +21°C° 0 mm 1 m/s 696 mmHg 96%
04:00 +21°C° 0 mm 1 m/s 696 mmHg 96%
05:00 +21°C° 0 mm 1 m/s 696 mmHg 96%
06:00 +21°C° 0 mm 1 m/s 696 mmHg 96%
07:00 +23°C° 0.1 mm 1 m/s 697 mmHg 91%
08:00 +25°C° 0.1 mm 1 m/s 697 mmHg 86%
09:00 +26°C° 0.1 mm 1 m/s 698 mmHg 80%
10:00 +27°C° 0.3 mm 1 m/s 698 mmHg 76%
11:00 +28°C° 0.3 mm 2 m/s 698 mmHg 71%
12:00 +29°C° 0.3 mm 2 m/s 697 mmHg 67%
13:00 +29°C° 0.7 mm 2 m/s 697 mmHg 69%
14:00 +29°C° 0.7 mm 2 m/s 697 mmHg 71%
15:00 +28°C° 0.7 mm 2 m/s 696 mmHg 73%
16:00 +27°C° 1.9 mm 2 m/s 696 mmHg 81%
17:00 +25°C° 1.9 mm 1 m/s 696 mmHg 89%
18:00 +23°C° 1.9 mm 1 m/s 696 mmHg 97%
19:00 +23°C° 5.1 mm 1 m/s 697 mmHg 97%
20:00 +23°C° 5.1 mm 1 m/s 697 mmHg 98%
21:00 +22°C° 5.1 mm 1 m/s 698 mmHg 98%
22:00 +22°C° 0 mm 1 m/s 698 mmHg 98%
23:00 +20°C° 0 mm 0 m/s 697 mmHg 98%
Arată mai mult